This is the latest recevied weather packets stored in our database for station/object EB2EMZ-15. If no packets are shown the sender has not sent any weather packets the latest 1 day(s).
| Time | Temp. | Humidity | Pressure | Rain* | Wind** | Luminosity | Snow |
|---|---|---|---|---|---|---|---|
| 1777998910 | 15.56° C | 74% | 993.4 hPa | 0 mm | 0 m/s | - | - |
| 1777998612 | 15.56° C | 74% | 993.4 hPa | 0 mm | 0 m/s | - | - |
| 1777998310 | 15.56° C | 74% | 993.4 hPa | 0 mm | 0 m/s | - | - |
| 1777998014 | 15.56° C | 74% | 993.4 hPa | 0 mm | 0 m/s | - | - |
| 1777997709 | 15.56° C | 74% | 993.4 hPa | 0 mm | 0 m/s | - | - |
| 1777997412 | 15.56° C | 73% | 993.3 hPa | 0 mm | 0 m/s | - | - |
| 1777997110 | 15° C | 73% | 993.3 hPa | 0 mm | 0 m/s | - | - |
| 1777996809 | 15° C | 72% | 993.3 hPa | 0 mm | 0 m/s | - | - |
| 1777996510 | 15.56° C | 72% | 993.3 hPa | 0 mm | 0 m/s | - | - |
| 1777996212 | 15.56° C | 70% | 993.3 hPa | 0 mm | 0 m/s | - | - |
| 1777995910 | 16.11° C | 69% | 993.1 hPa | 0 mm | 0 m/s | - | - |
| 1777995614 | 16.67° C | 69% | 993 hPa | 0 mm | 0 m/s | - | - |
| 1777995310 | 16.67° C | 68% | 992.9 hPa | 0 mm | 0 m/s | - | - |
| 1777995013 | 16.67° C | 69% | 992.8 hPa | 0 mm | 0 m/s | - | - |
| 1777994710 | 16.11° C | 70% | 992.9 hPa | 0 mm | 0 m/s | - | - |
| 1777994412 | 16.11° C | 70% | 993 hPa | 0 mm | 0 m/s | - | - |
| 1777994110 | 15.56° C | 71% | 993.2 hPa | 0 mm | 0 m/s | - | - |
| 1777993813 | 15.56° C | 71% | 993.3 hPa | 0 mm | 0 m/s | - | - |
| 1777993509 | 15.56° C | 71% | 993.4 hPa | 0 mm | 0 m/s | - | - |
| 1777993209 | 15.56° C | 71% | 993.4 hPa | 0 mm | 0 m/s | - | - |
| 1777992910 | 15.56° C | 71% | 993.5 hPa | 0 mm | 0 m/s | - | - |
| 1777992612 | 15.56° C | 72% | 993.4 hPa | 0 mm | 0 m/s | - | - |
| 1777992310 | 15.56° C | 71% | 993.4 hPa | 0 mm | 0 m/s | - | - |
| 1777992013 | 15.56° C | 71% | 993.3 hPa | 0 mm | 0 m/s | - | - |
| 1777991709 | 15.56° C | 72% | 993.6 hPa | 0 mm | 0 m/s | - | - |
* Rain latest hour (hover to see other rain measurements)
** Current wind speed in m/s (hover to see current wind gust speed)